This is the latest recevied weather packets stored in our database for station/object IK6IHU-3. If no packets are shown the sender has not sent any weather packets the latest 10 day(s).
| Time | Temp. | Humidity | Pressure | Rain* | Wind** | Luminosity | Snow |
|---|---|---|---|---|---|---|---|
| 1777333746 | 16.67° C | 60% | 1015.6 hPa | 0 mm | - | 0 W/m² | - |
| 1777333626 | 16.67° C | 60% | 1015.6 hPa | 0 mm | - | 0 W/m² | - |
| 1777333506 | 17.22° C | 59% | 1015.6 hPa | 0 mm | - | 0 W/m² | - |
| 1777333146 | 17.22° C | 59% | 1015.6 hPa | 0 mm | - | 0 W/m² | - |
| 1777332666 | 16.11° C | 61% | 1015.6 hPa | 0 mm | - | 0 W/m² | - |
| 1777332306 | 16.11° C | 62% | 1015.6 hPa | 0 mm | - | 0 W/m² | - |
| 1777332126 | 16.11° C | 62% | 1015.9 hPa | 0 mm | - | 0 W/m² | - |
| 1777332006 | 16.11° C | 61% | 1015.7 hPa | 0 mm | - | 0 W/m² | - |
| 1777331766 | 16.11° C | 61% | 1015.9 hPa | 0 mm | - | 0 W/m² | - |
| 1777331706 | 16.11° C | 61% | 1015.8 hPa | 0 mm | - | 0 W/m² | - |
| 1777331586 | 16.11° C | 61% | 1015.8 hPa | 0 mm | - | 0 W/m² | - |
| 1777331466 | 16.11° C | 61% | 1016 hPa | 0 mm | - | 0 W/m² | - |
| 1777331046 | 16.67° C | 60% | 1015.6 hPa | 0 mm | - | 0 W/m² | - |
| 1777329726 | 17.22° C | 58% | 1015.7 hPa | 0 mm | - | 0 W/m² | - |
| 1777329606 | 16.67° C | 59% | 1015.8 hPa | 0 mm | - | 0 W/m² | - |
| 1777329426 | 16.67° C | 60% | 1015.8 hPa | 0 mm | - | 0 W/m² | - |
| 1777329366 | 16.11° C | 61% | 1015.7 hPa | 0 mm | - | 0 W/m² | - |
| 1777329186 | 15.56° C | 62% | 1016.1 hPa | 0 mm | - | 0 W/m² | - |
| 1777329066 | 15.56° C | 62% | 1015.8 hPa | 0 mm | - | 0 W/m² | - |
| 1777329006 | 16.11° C | 61% | 1015.9 hPa | 0 mm | - | 0 W/m² | - |
| 1777328646 | 16.11° C | 61% | 1015.8 hPa | 0 mm | - | 0 W/m² | - |
| 1777328466 | 16.11° C | 62% | 1015.9 hPa | 0 mm | - | 0 W/m² | - |
| 1777328406 | 16.11° C | 62% | 1016 hPa | 0 mm | - | 0 W/m² | - |
| 1777328166 | 16.11° C | 61% | 1015.9 hPa | 0 mm | - | 0 W/m² | - |
| 1777328106 | 16.11° C | 61% | 1015.7 hPa | 0 mm | - | 0 W/m² | - |
* Rain latest hour (hover to see other rain measurements)
** Current wind speed in m/s (hover to see current wind gust speed)